OM6ACB-6 Weather Reports


Display with metric or nautical units.
time (UTC)temp
F
wind
direction
speed
MPH
gust
MPH
rain 1hr
in
rain 24hr
in
rain mn
in
humidity
%
barometer
mb
20260503004308 39 0 0.0 0.0 0.00 0.00 0.00 32 1021.8
20260503003308 39 0 0.0 0.0 0.00 0.00 0.00 32 1021.8
20260503002308 39 0 0.0 0.0 0.00 0.00 0.00 32 1021.9
20260503001307 39 0 0.0 0.0 0.00 0.00 0.00 32 1021.8
20260503000307 40 0 0.0 0.0 0.00 0.00 0.00 30 1022.0
20260502235307 41 0 0.0 0.0 0.00 0.00 0.00 30 1022.2
20260502234307 41 0 0.0 0.0 0.00 0.00 0.00 30 1022.2
20260502233306 41 0 0.0 0.0 0.00 0.00 0.00 30 1022.1
20260502232306 41 270 0.0 1.0 0.00 0.00 0.00 30 1022.1
20260502231306 41 270 0.0 1.0 0.00 0.00 0.00 30 1022.1
20260502230305 45 0 0.0 0.0 0.00 0.00 0.00 29 1022.4
20260502225305 45 0 0.0 0.0 0.00 0.00 0.00 29 1022.5
20260502224305 45 0 0.0 0.0 0.00 0.00 0.00 29 1022.5
20260502223305 45 0 0.0 0.0 0.00 0.00 0.00 29 1022.5
20260502222305 46 0 0.0 0.0 0.00 0.00 0.00 29 1022.5
20260502221304 46 0 0.0 0.0 0.00 0.00 0.00 29 1022.7
20260502220304 46 0 0.0 0.0 0.00 0.00 0.00 29 1022.5
20260502215305 46 0 0.0 0.0 0.00 0.00 0.00 29 1022.4
20260502214303 46 284 0.0 2.0 0.00 0.00 0.00 29 1022.3
20260502213303 -33 0 0.0 0.0 0.00 0.00 0.00 14 897.4
20260502212305 48 0 0.0 0.0 0.00 0.00 0.00 28 1022.6
20260502211302 48 0 0.0 0.0 0.00 0.00 0.00 28 1022.5
20260502210302 51 0 0.0 0.0 0.00 0.00 0.00 27 1022.7
20260502205302 51 45 1.0 1.0 0.00 0.00 0.00 27 1022.7
20260502204301 52 45 0.0 1.0 0.00 0.00 0.00 27 1022.6
20260502203301 51 178 0.0 3.0 0.00 0.00 0.00 27 1022.5
20260502202301 57 45 0.0 3.0 0.00 0.00 0.00 25 1023.2
20260502201300 57 45 2.0 3.0 0.00 0.00 0.00 25 1023.1
20260502200300 59 66 2.0 4.0 0.00 0.00 0.00 25 1023.2
20260502195300 58 44 2.0 3.0 0.00 0.00 0.00 25 1023.2
20260502194300 59 53 2.0 4.0 0.00 0.00 0.00 25 1023.1
20260502193259 59 69 2.0 4.0 0.00 0.00 0.00 25 1023.1
20260502192259 59 16 2.0 3.0 0.00 0.00 0.00 25 1023.1
20260502191259 60 45 3.0 4.0 0.00 0.00 0.00 25 1023.0
20260502190258 59 70 3.0 4.0 0.00 0.00 0.00 25 1022.9
20260502185258 59 49 2.0 4.0 0.00 0.00 0.00 25 1022.8
20260502184258 59 45 0.0 2.0 0.00 0.00 0.00 25 1022.7
20260502183258 56 45 0.0 0.0 0.00 0.00 0.00 26 1022.4
20260502182257 57 45 0.0 0.0 0.00 0.00 0.00 26 1022.4
20260502181257 59 48 0.0 1.0 0.00 0.00 0.00 25 1022.5
20260502180257 62 48 1.0 2.0 0.00 0.00 0.00 24 1022.6
20260502170255 68 128 3.0 6.0 0.00 0.00 0.00 23 1023.1
20260502164254 71 133 5.0 8.0 0.00 0.00 0.00 22 1023.4
20260502163254 72 128 4.0 6.0 0.00 0.00 0.00 21 1023.5
20260502162254 73 140 6.0 14.0 0.00 0.00 0.00 21 1023.6
20260502161254 73 130 6.0 7.0 0.00 0.00 0.00 21 1023.6
20260502160253 73 125 6.0 8.0 0.00 0.00 0.00 21 1023.7
20260502152252 75 142 5.0 9.0 0.00 0.00 0.00 20 1024.0
20260502151252 74 136 4.0 5.0 0.00 0.00 0.00 21 1024.1
20260502150251 76 139 4.0 5.0 0.00 0.00 0.00 20 1024.3
20260502130248 76 148 7.0 11.0 0.00 0.00 0.00 20 1025.2
20260502123247 75 167 4.0 10.0 0.00 0.00 0.00 21 1025.6
20260502122247 76 114 3.0 8.0 0.00 0.00 0.00 20 1026.0
20260502121247 76 148 5.0 8.0 0.00 0.00 0.00 20 1026.0
20260502120246 75 169 4.0 8.0 0.00 0.00 0.00 21 1026.2
20260502115246 78 123 4.0 14.0 0.00 0.00 0.00 20 1026.6
20260502114246 72 80 4.0 6.0 0.00 0.00 0.00 21 1026.2
20260502113245 72 60 4.0 9.0 0.00 0.00 0.00 22 1026.2
20260502112245 74 91 3.0 6.0 0.00 0.00 0.00 21 1026.5
20260502111245 74 90 3.0 6.0 0.00 0.00 0.00 21 1026.6
20260502110244 72 118 5.0 6.0 0.00 0.00 0.00 22 1026.5
20260502105244 71 136 7.0 7.0 0.00 0.00 0.00 22 1026.6
20260502104244 72 119 6.0 9.0 0.00 0.00 0.00 21 1026.8
20260502103243 70 86 5.0 9.0 0.00 0.00 0.00 22 1026.8
20260502102243 72 101 5.0 9.0 0.00 0.00 0.00 21 1027.0
20260502101243 71 143 7.0 8.0 0.00 0.00 0.00 22 1027.0
20260502100243 70 106 5.0 6.0 0.00 0.00 0.00 22 1027.0
20260502091241 68 96 4.0 8.0 0.00 0.00 0.00 22 1027.4
20260502090241 67 125 4.0 7.0 0.00 0.00 0.00 23 1027.5
20260502071208 57 159 2.0 4.0 0.00 0.00 0.00 25 1027.4
20260502070207 54 149 3.0 4.0 0.00 0.00 0.00 26 1027.3
20260502065207 55 179 2.0 3.0 0.00 0.00 0.00 26 1027.3
20260502064207 53 179 2.0 3.0 0.00 0.00 0.00 27 1027.3
20260502063207 56 113 0.0 2.0 0.00 0.00 0.00 26 1027.5
20260502062206 51 105 0.0 2.0 0.00 0.00 0.00 27 1027.4
20260502061206 52 312 0.0 2.0 0.00 0.00 0.00 27 1027.3
20260502060206 50 178 0.0 1.0 0.00 0.00 0.00 28 1027.1
20260502055205 48 181 0.0 0.0 0.00 0.00 0.00 28 1027.0
20260502054205 49 0 0.0 0.0 0.00 0.00 0.00 28 1027.1
20260502053205 47 0 0.0 0.0 0.00 0.00 0.00 28 1026.8
20260502052204 46 0 0.0 0.0 0.00 0.00 0.00 29 1026.8
20260502051204 45 0 0.0 0.0 0.00 0.00 0.00 29 1026.6
20260502050204 42 0 0.0 0.0 0.00 0.00 0.00 30 1026.3
20260502045204 42 0 0.0 0.0 0.00 0.00 0.00 30 1026.3
20260502044203 40 0 0.0 0.0 0.00 0.00 0.00 30 1026.1
20260502043203 39 0 0.0 0.0 0.00 0.00 0.00 31 1026.1
20260502042203 38 0 0.0 0.0 0.00 0.00 0.00 31 1025.8
20260502041202 37 0 0.0 0.0 0.00 0.00 0.00 31 1025.7
20260502040202 36 0 0.0 0.0 0.00 0.00 0.00 36 1025.7
20260502035202 34 0 0.0 0.0 0.00 0.00 0.00 61 1025.4
20260502034202 32 0 0.0 0.0 0.00 0.00 0.00 64 1025.2
20260502033201 31 0 0.0 0.0 0.00 0.00 0.00 64 1025.0
20260502032201 31 0 0.0 0.0 0.00 0.00 0.00 64 1025.1
20260502031201 32 0 0.0 0.0 0.00 0.00 0.00 64 1025.1
20260502030200 33 0 0.0 0.0 0.00 0.00 0.00 63 1025.1
20260502025200 33 0 0.0 0.0 0.00 0.00 0.00 64 1025.2
20260502024200 33 0 0.0 0.0 0.00 0.00 0.00 64 1025.3
20260502023159 33 0 0.0 0.0 0.00 0.00 0.00 63 1025.1
20260502022159 34 0 0.0 0.0 0.00 0.00 0.00 64 1025.3
20260502021159 34 0 0.0 0.0 0.00 0.00 0.00 64 1025.1
20260502020159 33 0 0.0 0.0 0.00 0.00 0.00 63 1025.1
20260502015158 33 0 0.0 0.0 0.00 0.00 0.00 63 1025.1
20260502014158 32 0 0.0 0.0 0.00 0.00 0.00 62 1025.2
20260502013158 33 0 0.0 0.0 0.00 0.00 0.00 60 1025.2
20260502012157 34 0 0.0 0.0 0.00 0.00 0.00 61 1025.3
20260502011157 34 0 0.0 0.0 0.00 0.00 0.00 59 1025.3
20260502010157 34 0 0.0 0.0 0.00 0.00 0.00 58 1025.5
20260502005157 35 0 0.0 0.0 0.00 0.00 0.00 56 1025.5